FW7017 Weather Reports


time (UTC)temp
C
wind
direction
speed
KPH
gust
KPH
rain 1hr
cm
rain 24hr
cm
rain mn
cm
humidity
%
barometer
mb
20260505170059 13 198 6.4 8.0 0.00 0.00 0.00 75 1014.8
20260505165554 13 193 6.4 8.0 0.00 0.00 0.00 74 1014.6
20260505165050 13 179 8.0 9.7 0.00 0.00 0.00 75 1014.6
20260505164546 13 193 8.0 8.0 0.00 0.00 0.00 77 1014.6
20260505164044 13 166 8.0 9.7 0.00 0.00 0.00 78 1014.3
20260505163542 13 167 8.0 9.7 0.00 0.00 0.00 79 1014.5
20260505163039 13 172 6.4 8.0 0.00 0.00 0.00 82 1014.6
20260505162538 13 180 6.4 8.0 0.00 0.00 0.00 85 1014.6
20260505162035 12 174 6.4 8.0 0.00 0.00 0.00 85 1014.7
20260505161532 12 184 6.4 8.0 0.00 0.00 0.00 87 1014.4
20260505161029 12 171 6.4 8.0 0.00 0.00 0.00 86 1014.6
20260505160527 12 178 6.4 9.7 0.00 0.00 0.00 87 1014.6
20260505153003 11 172 8.0 8.0 0.00 0.00 0.00 89 1014.5
20260505152500 11 165 8.0 9.7 0.00 0.00 0.00 89 1014.5
20260505151955 11 169 8.0 8.0 0.00 0.00 0.00 89 1014.5
20260505151451 11 178 6.4 8.0 0.00 0.00 0.00 89 1014.4
20260505150948 11 173 6.4 8.0 0.00 0.00 0.00 88 1014.4
20260505150445 11 168 6.4 8.0 0.00 0.00 0.00 88 1014.5
20260505140415 10 176 8.0 9.7 0.00 0.00 0.00 90 1014.1
20260505124829 10 168 6.4 8.0 0.00 0.00 0.00 90 1013.5
20260505124325 10 176 6.4 8.0 0.00 0.00 0.00 90 1013.7
20260505123821 10 170 6.4 8.0 0.00 0.00 0.00 89 1013.7
20260505123318 10 167 6.4 9.7 0.00 0.00 0.00 89 1013.7
20260505122814 10 170 8.0 8.0 0.00 0.00 0.00 90 1013.7
20260505122312 10 181 6.4 8.0 0.00 0.00 0.00 90 1013.9
20260505121808 10 172 6.4 6.4 0.00 0.00 0.00 90 1013.7
20260505121305 10 174 6.4 8.0 0.00 0.00 0.00 89 1013.7
20260505120801 10 173 6.4 6.4 0.00 0.00 0.00 89 1013.7
20260505120258 10 174 6.4 6.4 0.00 0.00 0.00 89 1013.8
20260505115756 10 176 6.4 8.0 0.00 0.00 0.00 90 1013.7
20260505115254 10 176 6.4 8.0 0.00 0.00 0.00 90 1013.7
20260505114751 10 177 6.4 8.0 0.00 0.00 0.00 90 1013.8
20260505114247 10 173 6.4 8.0 0.00 0.00 0.00 90 1013.8
20260505113744 10 170 6.4 8.0 0.00 0.00 0.00 90 1013.7
20260505113241 10 164 8.0 8.0 0.00 0.00 0.00 90 1013.6
20260505112736 10 171 6.4 8.0 0.00 0.00 0.00 89 1013.6
20260505112235 10 176 6.4 8.0 0.00 0.00 0.00 90 1013.6
20260505111734 10 166 6.4 8.0 0.00 0.00 0.00 90 1013.5
20260505111231 10 168 6.4 8.0 0.00 0.00 0.00 90 1013.6
20260505110726 10 167 8.0 8.0 0.00 0.00 0.00 90 1013.7
20260505110224 10 170 6.4 8.0 0.00 0.00 0.00 90 1013.5
20260505102159 11 179 6.4 8.0 0.00 0.00 0.00 89 1013.6
20260505101658 11 173 4.8 8.0 0.00 0.00 0.00 89 1013.4
20260505101154 11 176 6.4 8.0 0.00 0.00 0.00 89 1013.6
20260505100650 11 170 6.4 6.4 0.00 0.00 0.00 89 1013.6
20260505100148 11 172 6.4 8.0 0.00 0.00 0.00 89 1013.5
20260505095643 11 176 6.4 8.0 0.00 0.00 0.00 89 1013.7
20260505095141 11 169 6.4 8.0 0.00 0.00 0.00 89 1013.7
20260505094637 11 172 8.0 8.0 0.00 0.00 0.00 89 1013.8
20260505094133 11 169 6.4 8.0 0.00 0.00 0.00 89 1013.8
20260505093629 11 180 6.4 8.0 0.00 0.00 0.00 89 1013.7
20260505093127 11 174 6.4 6.4 0.00 0.00 0.00 89 1013.7
20260505092624 11 168 8.0 8.0 0.00 0.00 0.00 89 1013.8
20260505092123 11 171 6.4 8.0 0.00 0.00 0.00 89 1014.1
20260505091619 11 172 6.4 8.0 0.00 0.00 0.00 89 1014.0
20260505091117 11 164 6.4 8.0 0.00 0.00 0.00 89 1014.3
20260505090615 11 175 6.4 8.0 0.00 0.00 0.00 89 1014.1
20260505090113 11 176 6.4 8.0 0.00 0.00 0.00 89 1014.3
20260505085610 11 166 6.4 8.0 0.00 0.00 0.00 89 1014.1
20260505085108 11 177 6.4 9.7 0.00 0.00 0.00 89 1014.0
20260505084606 11 172 6.4 8.0 0.00 0.00 0.00 89 1014.2
20260505084104 11 180 6.4 8.0 0.00 0.00 0.00 88 1014.2
20260505083600 11 173 6.4 8.0 0.00 0.00 0.00 88 1014.1
20260505083057 11 174 6.4 8.0 0.00 0.00 0.00 89 1014.1
20260505082553 11 172 6.4 8.0 0.00 0.00 0.00 89 1014.3
20260505082050 11 171 6.4 8.0 0.00 0.00 0.00 88 1014.3
20260505081546 11 177 6.4 8.0 0.00 0.00 0.00 88 1014.4
20260505081044 11 177 6.4 8.0 0.00 0.00 0.00 88 1014.4
20260505080540 11 172 6.4 6.4 0.00 0.00 0.00 88 1014.2
20260505080037 11 174 6.4 8.0 0.00 0.00 0.00 88 1014.2
20260505075532 11 168 8.0 8.0 0.00 0.00 0.00 88 1014.5
20260505075030 11 178 6.4 6.4 0.00 0.00 0.00 87 1014.3
20260505074527 11 175 6.4 6.4 0.00 0.00 0.00 87 1014.1
20260505074024 11 172 6.4 6.4 0.00 0.00 0.00 87 1014.3
20260505073521 11 172 6.4 8.0 0.00 0.00 0.00 87 1014.2
20260505073020 11 169 6.4 6.4 0.00 0.00 0.00 86 1014.3
20260505072515 11 171 6.4 8.0 0.00 0.00 0.00 87 1014.1
20260505072011 11 169 6.4 8.0 0.00 0.00 0.00 87 1014.0
20260505071507 11 180 6.4 8.0 0.00 0.00 0.00 87 1013.8
20260505071005 11 168 8.0 8.0 0.00 0.00 0.00 86 1014.2
20260505070502 11 171 8.0 8.0 0.00 0.00 0.00 86 1014.1
20260505065957 11 171 6.4 8.0 0.00 0.00 0.00 86 1014.1
20260505065454 11 170 6.4 8.0 0.00 0.00 0.00 86 1014.1
20260505064951 11 176 6.4 6.4 0.00 0.00 0.00 85 1013.9
20260505064447 11 173 6.4 6.4 0.00 0.00 0.00 84 1013.9
20260505063946 11 180 6.4 6.4 0.00 0.00 0.00 84 1014.0
20260505063442 11 176 6.4 8.0 0.00 0.00 0.00 83 1014.0
20260505062939 11 179 6.4 8.0 0.00 0.00 0.00 83 1013.9
20260505062436 12 190 8.0 8.0 0.00 0.00 0.00 82 1013.9
20260505061932 12 186 6.4 8.0 0.00 0.00 0.00 81 1013.9
20260505061431 12 178 6.4 8.0 0.00 0.00 0.00 81 1013.9
20260505060928 12 186 8.0 8.0 0.00 0.00 0.00 80 1013.9
20260505060425 12 189 8.0 8.0 0.00 0.00 0.00 80 1014.0
20260505055921 12 180 6.4 8.0 0.00 0.00 0.00 80 1014.0
20260505055417 12 183 6.4 9.7 0.00 0.00 0.00 80 1014.0
20260505054914 12 181 6.4 9.7 0.00 0.00 0.00 80 1014.1
20260505054411 12 185 6.4 8.0 0.00 0.00 0.00 80 1014.2
20260505053910 12 185 8.0 8.0 0.00 0.00 0.00 81 1014.1
20260505053406 12 188 6.4 8.0 0.00 0.00 0.00 80 1014.4
20260505052903 12 179 6.4 8.0 0.00 0.00 0.00 81 1014.5
20260505052400 12 169 8.0 8.0 0.00 0.00 0.00 81 1014.2
20260505051857 12 172 8.0 8.0 0.00 0.00 0.00 80 1014.4
20260505051354 12 179 6.4 8.0 0.00 0.00 0.00 82 1014.4
20260505050852 12 176 6.4 9.7 0.00 0.00 0.00 82 1014.4
20260505050351 12 165 8.0 8.0 0.00 0.00 0.00 82 1014.4
20260505041318 12 174 6.4 8.0 0.00 0.00 0.00 79 1013.9
20260505040815 12 180 6.4 8.0 0.00 0.00 0.00 79 1013.9
20260505040313 12 180 6.4 8.0 0.00 0.00 0.00 79 1013.7
20260505035809 12 178 6.4 8.0 0.00 0.00 0.00 80 1013.6
20260505035305 12 179 6.4 8.0 0.00 0.00 0.00 79 1013.5
20260505034802 12 170 9.7 9.7 0.00 0.00 0.00 78 1013.6
20260505034259 12 171 8.0 8.0 0.00 0.00 0.00 79 1013.6
20260505033755 12 174 6.4 9.7 0.00 0.00 0.00 78 1013.5
20260505033253 12 173 8.0 8.0 0.00 0.00 0.00 78 1013.3
20260505032751 12 168 8.0 9.7 0.00 0.00 0.00 77 1013.3
20260505032247 13 167 8.0 9.7 0.00 0.00 0.00 77 1013.3
20260505031744 13 173 6.4 8.0 0.00 0.00 0.00 76 1013.3
20260505031240 13 165 8.0 9.7 0.00 0.00 0.00 76 1013.4
20260505030738 13 180 6.4 8.0 0.00 0.00 0.00 74 1013.2
20260505030234 13 181 6.4 8.0 0.00 0.00 0.00 74 1013.4
20260505025729 13 190 8.0 8.0 0.00 0.00 0.00 72 1013.3
20260505025228 13 189 6.4 8.0 0.00 0.00 0.00 71 1013.1
20260505024726 14 187 8.0 9.7 0.00 0.00 0.00 70 1013.0
20260505024223 14 191 6.4 8.0 0.00 0.00 0.00 69 1013.2
20260505023720 15 187 6.4 8.0 0.00 0.00 0.00 69 1013.3
20260505023217 15 186 6.4 8.0 0.00 0.00 0.00 68 1013.1
20260505022715 15 181 6.4 8.0 0.00 0.00 0.00 66 1013.1
20260505022211 15 172 6.4 6.4 0.00 0.00 0.00 66 1013.2
20260505021708 15 174 6.4 9.7 0.00 0.00 0.00 66 1013.2
20260505021205 15 181 6.4 6.4 0.00 0.00 0.00 65 1013.1
20260505020701 15 186 4.8 9.7 0.00 0.00 0.00 65 1013.0
20260505020156 15 180 6.4 8.0 0.00 0.00 0.00 65 1013.0
20260505015654 15 164 8.0 8.0 0.00 0.00 0.00 64 1013.1
20260505015150 15 180 6.4 9.7 0.00 0.00 0.00 63 1013.0
20260505014647 15 172 8.0 11.3 0.00 0.00 0.00 63 1012.9
20260505014144 16 181 6.4 9.7 0.00 0.00 0.00 62 1013.3
20260505013642 16 182 4.8 8.0 0.00 0.00 0.00 64 1013.2
20260505013139 16 170 8.0 9.7 0.00 0.00 0.00 62 1013.3
20260505012638 16 190 3.2 8.0 0.00 0.00 0.00 60 1013.2
20260505012134 16 181 6.4 9.7 0.00 0.00 0.00 61 1013.2
20260505011630 16 174 6.4 11.3 0.00 0.00 0.00 59 1013.2
20260505011128 16 190 6.4 9.7 0.00 0.00 0.00 60 1013.2
20260505010627 16 187 6.4 8.0 0.00 0.00 0.00 59 1013.5
20260505010124 16 164 6.4 9.7 0.00 0.00 0.00 58 1013.4
20260505005620 16 171 6.4 12.9 0.00 0.00 0.00 58 1013.3
20260505005118 16 173 6.4 9.7 0.00 0.00 0.00 57 1013.5
20260505004615 16 166 8.0 8.0 0.00 0.00 0.00 56 1013.7
20260505004111 17 163 9.7 9.7 0.00 0.00 0.00 54 1013.6
20260505003609 17 196 8.0 9.7 0.00 0.00 0.00 53 1013.5
20260505003106 17 170 8.0 8.0 0.00 0.00 0.00 54 1013.4
20260505002601 17 179 6.4 11.3 0.00 0.00 0.00 53 1013.4
20260505002100 18 201 9.7 14.5 0.00 0.00 0.00 53 1013.3
20260505001557 18 212 8.0 11.3 0.00 0.00 0.00 53 1013.5
20260505001055 18 185 6.4 14.5 0.00 0.00 0.00 55 1013.3
20260505000552 19 181 6.4 9.7 0.00 0.00 0.00 53 1013.3
20260505000049 20 159 8.0 9.7 0.00 0.00 0.00 52 1013.2
20260504235546 19 227 9.7 11.3 0.00 0.00 0.00 53 1013.2
20260504235043 18 194 8.0 11.3 0.00 0.00 0.00 55 1013.2
20260504234539 19 194 8.0 11.3 0.00 0.00 0.00 56 1013.5
20260504234036 20 177 8.0 9.7 0.00 0.00 0.00 52 1013.2
20260504233532 20 184 3.2 9.7 0.00 0.00 0.00 52 1013.3
20260504233029 19 187 4.8 8.0 0.00 0.00 0.00 52 1013.2
20260504232526 19 174 9.7 9.7 0.00 0.00 0.00 54 1013.4
20260504232024 20 176 9.7 9.7 0.00 0.00 0.00 51 1013.2
20260504231520 19 178 4.8 16.1 0.00 0.00 0.00 54 1013.4
20260504231016 20 159 4.8 11.3 0.00 0.00 0.00 53 1013.4
20260504230513 21 228 3.2 11.3 0.00 0.00 0.00 50 1013.3
20260504230012 21 192 8.0 8.0 0.00 0.00 0.00 52 1013.4
20260504225508 21 177 6.4 9.7 0.00 0.00 0.00 49 1013.4
20260504225005 20 193 4.8 8.0 0.00 0.00 0.00 52 1013.3
20260504224501 20 169 8.0 8.0 0.00 0.00 0.00 53 1013.4
20260504223959 20 219 4.8 8.0 0.00 0.00 0.00 52 1013.5
20260504223455 20 182 6.4 9.7 0.00 0.00 0.00 50 1013.4
20260504222951 20 209 4.8 11.3 0.00 0.00 0.00 54 1013.7
20260504222449 20 258 8.0 12.9 0.00 0.00 0.00 51 1013.5
20260504221946 20 165 8.0 9.7 0.00 0.00 0.00 51 1013.6
20260504221443 20 154 6.4 9.7 0.00 0.00 0.00 51 1013.8
20260504220940 20 171 6.4 9.7 0.00 0.00 0.00 51 1013.7
20260504220436 20 189 4.8 9.7 0.00 0.00 0.00 51 1013.9
20260504215933 19 218 11.3 11.3 0.00 0.00 0.00 51 1014.1
20260504215430 18 188 4.8 8.0 0.00 0.00 0.00 56 1014.0
20260504214926 18 177 4.8 8.0 0.00 0.00 0.00 55 1014.2
20260504214423 18 156 9.7 14.5 0.00 0.00 0.00 55 1014.2
20260504213920 18 212 12.9 12.9 0.00 0.00 0.00 57 1014.2
20260504213416 18 160 9.7 16.1 0.00 0.00 0.00 59 1014.0
20260504212914 18 188 8.0 12.9 0.00 0.00 0.00 60 1014.2
20260504212409 17 144 11.3 11.3 0.00 0.00 0.00 61 1014.2
20260504211907 16 170 4.8 8.0 0.00 0.00 0.00 64 1014.3
20260504211403 16 235 3.2 6.4 0.00 0.00 0.00 62 1014.3
20260504210900 16 169 6.4 11.3 0.00 0.00 0.00 63 1014.4
20260504210357 16 180 8.0 9.7 0.00 0.00 0.00 63 1014.3
20260504205854 16 180 6.4 9.7 0.00 0.00 0.00 64 1014.4
20260504205352 16 157 6.4 8.0 0.00 0.00 0.00 61 1014.3
20260504204850 16 185 8.0 8.0 0.00 0.00 0.00 60 1014.5
20260504204348 16 171 3.2 12.9 0.00 0.00 0.00 58 1014.3
20260504203847 17 207 3.2 9.7 0.00 0.00 0.00 60 1014.2
20260504203344 17 140 12.9 14.5 0.00 0.00 0.00 60 1014.1
20260504202840 17 176 8.0 17.7 0.00 0.00 0.00 62 1014.2
20260504202337 17 147 11.3 16.1 0.00 0.00 0.00 64 1014.1
20260504201833 17 157 9.7 12.9 0.00 0.00 0.00 61 1014.2
20260504201331 17 151 12.9 17.7 0.00 0.00 0.00 63 1014.1
20260504200828 16 183 8.0 12.9 0.00 0.00 0.00 67 1014.4
20260504200325 16 176 6.4 17.7 0.00 0.00 0.00 63 1014.2
20260504195821 17 167 8.0 9.7 0.00 0.00 0.00 62 1014.1
20260504195317 17 167 9.7 12.9 0.00 0.00 0.00 65 1014.2
20260504194814 16 202 8.0 8.0 0.00 0.00 0.00 65 1014.2
20260504194310 16 241 3.2 9.7 0.00 0.00 0.00 65 1014.4
20260504193806 16 171 4.8 9.7 0.00 0.00 0.00 67 1014.4
20260504193304 15 158 8.0 11.3 0.00 0.00 0.00 71 1014.5
20260504192802 15 172 6.4 9.7 0.00 0.00 0.00 70 1014.4
20260504192300 15 168 3.2 8.0 0.00 0.00 0.00 70 1014.4
20260504191758 15 175 4.8 11.3 0.00 0.00 0.00 73 1014.4
20260504191255 15 183 6.4 9.7 0.00 0.00 0.00 71 1014.5
20260504190750 15 178 4.8 9.7 0.00 0.00 0.00 71 1014.5
20260504190247 15 168 8.0 9.7 0.00 0.00 0.00 71 1014.4
20260504185743 15 178 6.4 8.0 0.00 0.00 0.00 72 1014.5
20260504185240 15 154 6.4 8.0 0.00 0.00 0.00 72 1014.6
20260504184737 15 173 8.0 9.7 0.00 0.00 0.00 73 1014.7
20260504184232 15 171 6.4 8.0 0.00 0.00 0.00 75 1014.7
20260504183728 15 182 6.4 8.0 0.00 0.00 0.00 74 1014.6
20260504183226 15 154 9.7 11.3 0.00 0.00 0.00 74 1014.6
20260504182724 15 161 8.0 8.0 0.00 0.00 0.00 73 1014.6
20260504182220 15 160 8.0 8.0 0.00 0.00 0.00 70 1014.6
20260504181718 15 180 6.4 9.7 0.00 0.00 0.00 70 1014.5
20260504181215 15 178 6.4 8.0 0.00 0.00 0.00 73 1014.5
20260504180714 15 155 9.7 9.7 0.00 0.00 0.00 72 1014.4
20260504180213 15 162 8.0 9.7 0.00 0.00 0.00 74 1014.6
20260504175709 15 146 11.3 12.9 0.00 0.00 0.00 73 1014.3
20260504175206 15 180 6.4 8.0 0.00 0.00 0.00 73 1014.3
20260504174704 15 184 6.4 8.0 0.00 0.00 0.00 73 1014.3
20260504174202 15 153 9.7 12.9 0.00 0.00 0.00 76 1014.2
20260504173658 15 178 6.4 12.9 0.00 0.00 0.00 77 1013.9
20260504173155 15 148 11.3 14.5 0.00 0.00 0.00 75 1013.9
20260504172652 15 164 9.7 9.7 0.00 0.00 0.00 77 1014.2
20260504172148 15 164 8.0 11.3 0.00 0.00 0.00 74 1014.1
20260504171644 15 160 8.0 12.9 0.00 0.00 0.00 75 1014.2
20260504171142 15 170 9.7 11.3 0.00 0.00 0.00 73 1014.0
20260504170638 15 164 9.7 11.3 0.00 0.00 0.00 77 1013.9